This is the latest recevied weather packets stored in our database for station/object AC4AG. If no packets are shown the sender has not sent any weather packets the latest 10 day(s).
| Time | Temp. | Humidity | Pressure | Rain* | Wind** | Luminosity | Snow |
|---|---|---|---|---|---|---|---|
| 1777573922 | 13.89° C | 51% | 1015.3 hPa | 0 mm | - | 901 W/m² | - |
| 1777573622 | 14.44° C | 49% | 1015.3 hPa | 0 mm | - | 907 W/m² | - |
| 1777573318 | 13.89° C | 47% | 1015.5 hPa | 0 mm | - | 911 W/m² | - |
| 1777573014 | 13.89° C | 48% | 1015.5 hPa | 0 mm | - | 913 W/m² | - |
| 1777572710 | 13.89° C | 49% | 1015.5 hPa | 0 mm | - | 916 W/m² | - |
| 1777572405 | 14.44° C | 50% | 1015.3 hPa | 0 mm | - | 918 W/m² | - |
| 1777572102 | 13.89° C | 50% | 1015.5 hPa | 0 mm | - | 919 W/m² | - |
| 1777571803 | 13.89° C | 51% | 1015.6 hPa | 0 mm | - | 920 W/m² | - |
| 1777571499 | 13.89° C | 52% | 1015.6 hPa | 0 mm | - | 918 W/m² | - |
| 1777571196 | 14.44° C | 52% | 1015.8 hPa | 0 mm | - | 920 W/m² | - |
| 1777570891 | 13.89° C | 54% | 1015.6 hPa | 0 mm | - | 920 W/m² | - |
| 1777570587 | 13.89° C | 54% | 1015.7 hPa | 0 mm | - | 917 W/m² | - |
| 1777570285 | 13.33° C | 53% | 1015.5 hPa | 0 mm | - | 915 W/m² | - |
| 1777569980 | 13.89° C | 55% | 1015.7 hPa | 0 mm | - | 916 W/m² | - |
| 1777569676 | 13.89° C | 54% | 1015.6 hPa | 0 mm | - | 912 W/m² | - |
| 1777569372 | 13.89° C | 52% | 1015.9 hPa | 0 mm | - | 910 W/m² | - |
| 1777569069 | 13.33° C | 53% | 1016 hPa | 0 mm | - | 905 W/m² | - |
| 1777568765 | 13.33° C | 55% | 1015.9 hPa | 0 mm | - | 897 W/m² | - |
| 1777568463 | 13.33° C | 54% | 1015.9 hPa | 0 mm | - | 897 W/m² | - |
| 1777568159 | 12.78° C | 58% | 1016.1 hPa | 0 mm | - | 892 W/m² | - |
| 1777567856 | 12.78° C | 55% | 1016 hPa | 0 mm | - | 887 W/m² | - |
| 1777567552 | 12.78° C | 55% | 1016.3 hPa | 0 mm | - | 882 W/m² | - |
| 1777567250 | 12.78° C | 55% | 1016 hPa | 0 mm | - | 878 W/m² | - |
| 1777566948 | 12.22° C | 57% | 1016.3 hPa | 0 mm | - | 868 W/m² | - |
| 1777566343 | 12.22° C | 57% | 1016.3 hPa | 0 mm | - | 856 W/m² | - |
* Rain latest hour (hover to see other rain measurements)
** Current wind speed in m/s (hover to see current wind gust speed)